When you browse on this site, cookies collect data to enhance your experience and personalize the content and advertising you see.
Visit our Privacy Policy to learn more. By continuing to use the site, you agree to this use of cookies and data.
  • în România
  • Lista ţărilor
  • Pe 7 zile
  • Temperatura apei
  • Hartă satelitară
  • Meteo pe hartă
  • Widget-uri
  • user-avatar
    Intrare

    Meteo pe oră la Grinsboro

    Astăzi, 10 Decembrie, Luni

    Timp Temperatura Precipitaţii Vânt Presiune Umiditate
    00:00 -2°C° 0.4 mm 5 m/s 740 mmHg 96%
    01:00 -2°C° 0.4 mm 5 m/s 739 mmHg 97%
    02:00 -2°C° 0.7 mm 5 m/s 739 mmHg 97%
    03:00 -2°C° 0.7 mm 4 m/s 739 mmHg 98%
    04:00 -2°C° 0.7 mm 4 m/s 739 mmHg 98%
    05:00 -2°C° 1.1 mm 4 m/s 740 mmHg 98%
    06:00 -2°C° 1.1 mm 4 m/s 740 mmHg 97%
    07:00 -2°C° 1.1 mm 4 m/s 740 mmHg 97%
    08:00 -2°C° 0.7 mm 4 m/s 741 mmHg 96%
    09:00 -2°C° 0.7 mm 4 m/s 741 mmHg 96%
    10:00 -2°C° 0.7 mm 4 m/s 742 mmHg 95%
    11:00 -2°C° 0.2 mm 4 m/s 742 mmHg 96%
    12:00 -1°C° 0.2 mm 3 m/s 741 mmHg 96%
    13:00 -1°C° 0.2 mm 3 m/s 741 mmHg 97%
    14:00 -1°C° 0 mm 2 m/s 741 mmHg 97%
    15:00 -1°C° 0 mm 2 m/s 741 mmHg 97%
    16:00 -1°C° 0 mm 2 m/s 741 mmHg 97%
    17:00 -1°C° 0 mm 2 m/s 742 mmHg 96%
    18:00 +1°C° 0 mm 1 m/s 743 mmHg 96%
    19:00 +1°C° 0 mm 1 m/s 743 mmHg 95%
    20:00 0°C° 0 mm 1 m/s 743 mmHg 95%
    21:00 0°C° 0 mm 1 m/s 744 mmHg 94%
    22:00 0°C° 0 mm 1 m/s 744 mmHg 93%
    23:00 -1°C° 0 mm 1 m/s 744 mmHg 93%

    Mâine, 11 Decembrie, Marţi

    Timp Temperatura Precipitaţii Vânt Presiune Umiditate
    00:00 -1°C° 0 mm 1 m/s 744 mmHg 92%
    01:00 -1°C° 0 mm 1 m/s 744 mmHg 92%
    02:00 -2°C° 0 mm 1 m/s 744 mmHg 92%
    03:00 -3°C° 0 mm 1 m/s 744 mmHg 91%
    04:00 -3°C° 0 mm 1 m/s 744 mmHg 91%
    05:00 -4°C° 0 mm 1 m/s 744 mmHg 90%
    06:00 -4°C° 0 mm 1 m/s 744 mmHg 90%
    07:00 -6°C° 0 mm 1 m/s 745 mmHg 90%
    08:00 -5°C° 0 mm 2 m/s 745 mmHg 89%
    09:00 -4°C° 0 mm 2 m/s 745 mmHg 89%
    10:00 -2°C° 0 mm 2 m/s 746 mmHg 88%
    11:00 -1°C° 0 mm 2 m/s 745 mmHg 92%
    12:00 -1°C° 0 mm 2 m/s 745 mmHg 96%
    13:00 +1°C° 0 mm 2 m/s 745 mmHg 99%
    14:00 +1°C° 0 mm 2 m/s 744 mmHg 99%
    15:00 -1°C° 0 mm 2 m/s 744 mmHg 98%
    16:00 -1°C° 0 mm 2 m/s 744 mmHg 98%
    17:00 -2°C° 0 mm 2 m/s 744 mmHg 97%
    18:00 -3°C° 0 mm 2 m/s 744 mmHg 96%
    19:00 -4°C° 0 mm 2 m/s 745 mmHg 95%
    20:00 -4°C° 0 mm 2 m/s 745 mmHg 94%
    21:00 -4°C° 0 mm 2 m/s 745 mmHg 93%
    22:00 -5°C° 0 mm 2 m/s 745 mmHg 93%
    23:00 -5°C° 0 mm 2 m/s 745 mmHg 90%

    Poimâine, 12 Decembrie, Miercuri

    Timp Temperatura Precipitaţii Vânt Presiune Umiditate
    00:00 -5°C° 0 mm 2 m/s 745 mmHg 88%
    01:00 -6°C° 0 mm 2 m/s 745 mmHg 86%
    02:00 -6°C° 0 mm 2 m/s 745 mmHg 85%
    03:00 -6°C° 0 mm 2 m/s 745 mmHg 84%
    04:00 -6°C° 0 mm 2 m/s 745 mmHg 83%
    05:00 -6°C° 0 mm 2 m/s 746 mmHg 83%
    06:00 -6°C° 0 mm 2 m/s 746 mmHg 83%
    07:00 -5°C° 0 mm 2 m/s 747 mmHg 83%
    08:00 -4°C° 0 mm 2 m/s 747 mmHg 87%
    09:00 -2°C° 0 mm 2 m/s 747 mmHg 91%
    10:00 -1°C° 0 mm 2 m/s 748 mmHg 95%
    11:00 +2°C° 0 mm 1 m/s 748 mmHg 96%
    12:00 +2°C° 0 mm 1 m/s 747 mmHg 98%
    13:00 +3°C° 0 mm 1 m/s 747 mmHg 99%
    14:00 +2°C° 0 mm 1 m/s 747 mmHg 99%
    15:00 +2°C° 0 mm 1 m/s 747 mmHg 99%
    16:00 +2°C° 0 mm 1 m/s 747 mmHg 99%
    17:00 +1°C° 0 mm 1 m/s 748 mmHg 99%
    18:00 +1°C° 0 mm 1 m/s 748 mmHg 99%
    19:00 -1°C° 0 mm 2 m/s 749 mmHg 98%
    20:00 0°C° 0 mm 1 m/s 749 mmHg 98%
    21:00 0°C° 0 mm 1 m/s 750 mmHg 97%
    22:00 0°C° 0 mm 1 m/s 750 mmHg 97%
    23:00 -1°C° 0 mm 1 m/s 750 mmHg 97%

    13 Decembrie, Joi

    Timp Temperatura Precipitaţii Vânt Presiune Umiditate
    00:00 -1°C° 0 mm 1 m/s 750 mmHg 97%
    01:00 -1°C° 0 mm 1 m/s 750 mmHg 96%
    02:00 -1°C° 0 mm 1 m/s 750 mmHg 96%
    03:00 -2°C° 0 mm 1 m/s 750 mmHg 96%
    04:00 -2°C° 0 mm 1 m/s 750 mmHg 96%
    05:00 -2°C° 0 mm 1 m/s 750 mmHg 96%
    06:00 -2°C° 0 mm 1 m/s 750 mmHg 96%
    07:00 -2°C° 0 mm 1 m/s 750 mmHg 96%
    08:00 -1°C° 0 mm 1 m/s 751 mmHg 97%
    09:00 0°C° 0 mm 1 m/s 751 mmHg 97%
    10:00 +1°C° 0 mm 1 m/s 751 mmHg 98%
    11:00 +2°C° 0 mm 1 m/s 750 mmHg 99%
    12:00 +2°C° 0 mm 1 m/s 750 mmHg 99%
    13:00 +3°C° 0 mm 1 m/s 749 mmHg 99%
    14:00 +3°C° 0 mm 1 m/s 749 mmHg 99%
    15:00 +3°C° 0 mm 1 m/s 748 mmHg 99%
    16:00 +3°C° 0 mm 1 m/s 748 mmHg 99%
    17:00 +3°C° 0.1 mm 1 m/s 748 mmHg 99%
    18:00 +3°C° 0.1 mm 1 m/s 748 mmHg 99%
    19:00 +2°C° 0.1 mm 2 m/s 748 mmHg 99%
    20:00 +2°C° 0.1 mm 2 m/s 748 mmHg 99%
    21:00 +2°C° 0.1 mm 2 m/s 748 mmHg 99%
    22:00 +2°C° 0.1 mm 2 m/s 747 mmHg 99%
    23:00 +2°C° 0.3 mm 2 m/s 747 mmHg 99%

    14 Decembrie, Vineri

    Timp Temperatura Precipitaţii Vânt Presiune Umiditate
    00:00 +2°C° 0.3 mm 2 m/s 746 mmHg 99%
    01:00 +2°C° 0.3 mm 2 m/s 745 mmHg 99%
    02:00 +2°C° 0.3 mm 3 m/s 744 mmHg 99%
    03:00 +2°C° 0.3 mm 3 m/s 744 mmHg 99%
    04:00 +3°C° 0.3 mm 3 m/s 743 mmHg 99%
    05:00 +3°C° 1 mm 3 m/s 743 mmHg 99%
    06:00 +4°C° 1 mm 4 m/s 743 mmHg 99%
    07:00 +4°C° 1 mm 4 m/s 742 mmHg 99%
    08:00 +5°C° 0.9 mm 4 m/s 742 mmHg 99%
    09:00 +6°C° 0.9 mm 4 m/s 742 mmHg 99%
    10:00 +6°C° 0.9 mm 4 m/s 742 mmHg 99%
    11:00 +7°C° 1.2 mm 4 m/s 741 mmHg 99%
    12:00 +8°C° 1.2 mm 4 m/s 740 mmHg 99%
    13:00 +10°C° 1.2 mm 4 m/s 739 mmHg 99%
    14:00 +9°C° 1 mm 5 m/s 738 mmHg 98%
    15:00 +10°C° 1 mm 5 m/s 737 mmHg 98%
    16:00 +11°C° 1 mm 6 m/s 736 mmHg 98%
    17:00 +11°C° 1 mm 6 m/s 736 mmHg 97%
    18:00 +11°C° 1 mm 6 m/s 735 mmHg 97%
    19:00 +13°C° 1 mm 6 m/s 735 mmHg 97%
    20:00 +12°C° 1.7 mm 5 m/s 734 mmHg 96%
    21:00 +11°C° 1.7 mm 4 m/s 734 mmHg 96%
    22:00 +10°C° 1.7 mm 2 m/s 734 mmHg 95%
    23:00 +9°C° 0.4 mm 2 m/s 733 mmHg 95%

    15 Decembrie, Sâmbătă

    Timp Temperatura Precipitaţii Vânt Presiune Umiditate
    00:00 +8°C° 0.4 mm 2 m/s 733 mmHg 95%
    01:00 +9°C° 0.4 mm 1 m/s 732 mmHg 94%
    02:00 +7°C° 0 mm 2 m/s 732 mmHg 95%
    03:00 +6°C° 0 mm 2 m/s 732 mmHg 95%
    04:00 +5°C° 0 mm 2 m/s 732 mmHg 95%
    05:00 +4°C° 0 mm 2 m/s 732 mmHg 96%
    06:00 +4°C° 0 mm 2 m/s 732 mmHg 96%
    07:00 +3°C° 0 mm 2 m/s 732 mmHg 96%
    08:00 +5°C° 0 mm 2 m/s 733 mmHg 95%
    09:00 +5°C° 0 mm 3 m/s 733 mmHg 93%
    10:00 +7°C° 0 mm 3 m/s 733 mmHg 92%
    11:00 +8°C° 0 mm 3 m/s 733 mmHg 90%
    12:00 +8°C° 0 mm 3 m/s 732 mmHg 88%
    13:00 +9°C° 0 mm 3 m/s 732 mmHg 87%
    14:00 +9°C° 0.1 mm 3 m/s 732 mmHg 87%
    15:00 +9°C° 0.1 mm 3 m/s 731 mmHg 88%
    16:00 +9°C° 0.1 mm 3 m/s 731 mmHg 89%
    17:00 +8°C° 0 mm 3 m/s 732 mmHg 91%
    18:00 +7°C° 0 mm 3 m/s 732 mmHg 93%
    19:00 +7°C° 0 mm 3 m/s 733 mmHg 95%
    20:00 +7°C° 0 mm 3 m/s 733 mmHg 95%
    21:00 +7°C° 0 mm 3 m/s 733 mmHg 94%
    22:00 +7°C° 0 mm 2 m/s 733 mmHg 94%
    23:00 +7°C° 0 mm 3 m/s 733 mmHg 93%
    Arată mai mult